Index of /20260430/WXO-DD/model_gdps/15km/12/027
Name Last modified Size Description
Parent Directory -
20260430T12Z_MSC_GDPS_AbsoluteVorticity_IsbL-0200_LatLon0.15_PT027H.grib2 2026-04-30 15:57 1.5M
20260430T12Z_MSC_GDPS_AbsoluteVorticity_IsbL-0250_LatLon0.15_PT027H.grib2 2026-04-30 15:57 1.3M
20260430T12Z_MSC_GDPS_AbsoluteVorticity_IsbL-0500_LatLon0.15_PT027H.grib2 2026-04-30 15:57 1.4M
20260430T12Z_MSC_GDPS_AbsoluteVorticity_IsbL-0700_LatLon0.15_PT027H.grib2 2026-04-30 15:57 1.6M
20260430T12Z_MSC_GDPS_AbsoluteVorticity_IsbL-0850_LatLon0.15_PT027H.grib2 2026-04-30 15:57 1.6M
20260430T12Z_MSC_GDPS_AirTemp_AGL-120m_LatLon0.15_PT027H.grib2 2026-04-30 15:57 793K
20260430T12Z_MSC_GDPS_AirTemp_AGL-2m_LatLon0.15_PT027H.grib2 2026-04-30 15:57 1.0M
20260430T12Z_MSC_GDPS_AirTemp_AGL-40m_LatLon0.15_PT027H.grib2 2026-04-30 15:57 813K
20260430T12Z_MSC_GDPS_AirTemp_AGL-80m_LatLon0.15_PT027H.grib2 2026-04-30 15:57 801K
20260430T12Z_MSC_GDPS_AirTemp_IsbL-0001_LatLon0.15_PT027H.grib2 2026-04-30 15:57 656K
20260430T12Z_MSC_GDPS_AirTemp_IsbL-0005_LatLon0.15_PT027H.grib2 2026-04-30 15:57 683K
20260430T12Z_MSC_GDPS_AirTemp_IsbL-0010_LatLon0.15_PT027H.grib2 2026-04-30 15:57 763K
20260430T12Z_MSC_GDPS_AirTemp_IsbL-0020_LatLon0.15_PT027H.grib2 2026-04-30 15:57 788K
20260430T12Z_MSC_GDPS_AirTemp_IsbL-0030_LatLon0.15_PT027H.grib2 2026-04-30 15:57 756K
20260430T12Z_MSC_GDPS_AirTemp_IsbL-0050_LatLon0.15_PT027H.grib2 2026-04-30 15:57 808K
20260430T12Z_MSC_GDPS_AirTemp_IsbL-0100_LatLon0.15_PT027H.grib2 2026-04-30 15:57 960K
20260430T12Z_MSC_GDPS_AirTemp_IsbL-0150_LatLon0.15_PT027H.grib2 2026-04-30 15:57 1.0M
20260430T12Z_MSC_GDPS_AirTemp_IsbL-0175_LatLon0.15_PT027H.grib2 2026-04-30 15:57 963K
20260430T12Z_MSC_GDPS_AirTemp_IsbL-0200_LatLon0.15_PT027H.grib2 2026-04-30 15:57 1.0M
20260430T12Z_MSC_GDPS_AirTemp_IsbL-0225_LatLon0.15_PT027H.grib2 2026-04-30 15:57 1.0M
20260430T12Z_MSC_GDPS_AirTemp_IsbL-0250_LatLon0.15_PT027H.grib2 2026-04-30 15:57 1.0M
20260430T12Z_MSC_GDPS_AirTemp_IsbL-0275_LatLon0.15_PT027H.grib2 2026-04-30 15:57 1.0M
20260430T12Z_MSC_GDPS_AirTemp_IsbL-0300_LatLon0.15_PT027H.grib2 2026-04-30 15:57 1.0M
20260430T12Z_MSC_GDPS_AirTemp_IsbL-0350_LatLon0.15_PT027H.grib2 2026-04-30 15:57 932K
20260430T12Z_MSC_GDPS_AirTemp_IsbL-0400_LatLon0.15_PT027H.grib2 2026-04-30 15:57 942K
20260430T12Z_MSC_GDPS_AirTemp_IsbL-0450_LatLon0.15_PT027H.grib2 2026-04-30 15:57 960K
20260430T12Z_MSC_GDPS_AirTemp_IsbL-0500_LatLon0.15_PT027H.grib2 2026-04-30 15:57 764K
20260430T12Z_MSC_GDPS_AirTemp_IsbL-0550_LatLon0.15_PT027H.grib2 2026-04-30 15:57 800K
20260430T12Z_MSC_GDPS_AirTemp_IsbL-0600_LatLon0.15_PT027H.grib2 2026-04-30 15:57 902K
20260430T12Z_MSC_GDPS_AirTemp_IsbL-0650_LatLon0.15_PT027H.grib2 2026-04-30 15:57 932K
20260430T12Z_MSC_GDPS_AirTemp_IsbL-0700_LatLon0.15_PT027H.grib2 2026-04-30 15:57 964K
20260430T12Z_MSC_GDPS_AirTemp_IsbL-0750_LatLon0.15_PT027H.grib2 2026-04-30 15:57 1.0M
20260430T12Z_MSC_GDPS_AirTemp_IsbL-0800_LatLon0.15_PT027H.grib2 2026-04-30 15:57 1.1M
20260430T12Z_MSC_GDPS_AirTemp_IsbL-0850_LatLon0.15_PT027H.grib2 2026-04-30 15:57 1.1M
20260430T12Z_MSC_GDPS_AirTemp_IsbL-0875_LatLon0.15_PT027H.grib2 2026-04-30 15:57 1.2M
20260430T12Z_MSC_GDPS_AirTemp_IsbL-0900_LatLon0.15_PT027H.grib2 2026-04-30 15:57 1.1M
20260430T12Z_MSC_GDPS_AirTemp_IsbL-0925_LatLon0.15_PT027H.grib2 2026-04-30 15:57 1.1M
20260430T12Z_MSC_GDPS_AirTemp_IsbL-0950_LatLon0.15_PT027H.grib2 2026-04-30 15:57 1.1M
20260430T12Z_MSC_GDPS_AirTemp_IsbL-0970_LatLon0.15_PT027H.grib2 2026-04-30 15:57 1.2M
20260430T12Z_MSC_GDPS_AirTemp_IsbL-0985_LatLon0.15_PT027H.grib2 2026-04-30 15:57 1.2M
20260430T12Z_MSC_GDPS_AirTemp_IsbL-1000_LatLon0.15_PT027H.grib2 2026-04-30 15:57 1.1M
20260430T12Z_MSC_GDPS_AirTemp_IsbL-1015_LatLon0.15_PT027H.grib2 2026-04-30 15:57 1.1M
20260430T12Z_MSC_GDPS_Albedo_Sfc_LatLon0.15_PT027H.grib2 2026-04-30 15:57 241K
20260430T12Z_MSC_GDPS_CAPE_Sfc_LatLon0.15_PT027H.grib2 2026-04-30 15:57 3.8M
20260430T12Z_MSC_GDPS_CIN_Sfc_LatLon0.15_PT027H.grib2 2026-04-30 15:57 3.0M
20260430T12Z_MSC_GDPS_CloudWater_EAtm_LatLon0.15_PT027H.grib2 2026-04-30 15:57 535K
20260430T12Z_MSC_GDPS_ConvectivePrecip-Accum_Sfc_LatLon0.15_PT027H.grib2 2026-04-30 15:57 2.5M
20260430T12Z_MSC_GDPS_DewPointDepression_AGL-2m_LatLon0.15_PT027H.grib2 2026-04-30 15:57 767K
20260430T12Z_MSC_GDPS_DewPointDepression_IsbL-0010_LatLon0.15_PT027H.grib2 2026-04-30 15:57 60K
20260430T12Z_MSC_GDPS_DewPointDepression_IsbL-0020_LatLon0.15_PT027H.grib2 2026-04-30 15:57 65K
20260430T12Z_MSC_GDPS_DewPointDepression_IsbL-0030_LatLon0.15_PT027H.grib2 2026-04-30 15:57 72K
20260430T12Z_MSC_GDPS_DewPointDepression_IsbL-0050_LatLon0.15_PT027H.grib2 2026-04-30 15:57 371K
20260430T12Z_MSC_GDPS_DewPointDepression_IsbL-0100_LatLon0.15_PT027H.grib2 2026-04-30 15:57 418K
20260430T12Z_MSC_GDPS_DewPointDepression_IsbL-0150_LatLon0.15_PT027H.grib2 2026-04-30 15:57 470K
20260430T12Z_MSC_GDPS_DewPointDepression_IsbL-0175_LatLon0.15_PT027H.grib2 2026-04-30 15:57 567K
20260430T12Z_MSC_GDPS_DewPointDepression_IsbL-0200_LatLon0.15_PT027H.grib2 2026-04-30 15:57 689K
20260430T12Z_MSC_GDPS_DewPointDepression_IsbL-0225_LatLon0.15_PT027H.grib2 2026-04-30 15:57 795K
20260430T12Z_MSC_GDPS_DewPointDepression_IsbL-0250_LatLon0.15_PT027H.grib2 2026-04-30 15:57 882K
20260430T12Z_MSC_GDPS_DewPointDepression_IsbL-0275_LatLon0.15_PT027H.grib2 2026-04-30 15:57 895K
20260430T12Z_MSC_GDPS_DewPointDepression_IsbL-0300_LatLon0.15_PT027H.grib2 2026-04-30 15:57 932K
20260430T12Z_MSC_GDPS_DewPointDepression_IsbL-0350_LatLon0.15_PT027H.grib2 2026-04-30 15:57 955K
20260430T12Z_MSC_GDPS_DewPointDepression_IsbL-0400_LatLon0.15_PT027H.grib2 2026-04-30 15:57 1.0M
20260430T12Z_MSC_GDPS_DewPointDepression_IsbL-0450_LatLon0.15_PT027H.grib2 2026-04-30 15:57 1.0M
20260430T12Z_MSC_GDPS_DewPointDepression_IsbL-0500_LatLon0.15_PT027H.grib2 2026-04-30 15:57 1.0M
20260430T12Z_MSC_GDPS_DewPointDepression_IsbL-0550_LatLon0.15_PT027H.grib2 2026-04-30 15:57 1.0M
20260430T12Z_MSC_GDPS_DewPointDepression_IsbL-0600_LatLon0.15_PT027H.grib2 2026-04-30 15:57 1.0M
20260430T12Z_MSC_GDPS_DewPointDepression_IsbL-0650_LatLon0.15_PT027H.grib2 2026-04-30 15:57 1.1M
20260430T12Z_MSC_GDPS_DewPointDepression_IsbL-0700_LatLon0.15_PT027H.grib2 2026-04-30 15:57 1.1M
20260430T12Z_MSC_GDPS_DewPointDepression_IsbL-0750_LatLon0.15_PT027H.grib2 2026-04-30 15:57 1.1M
20260430T12Z_MSC_GDPS_DewPointDepression_IsbL-0800_LatLon0.15_PT027H.grib2 2026-04-30 15:57 1.2M
20260430T12Z_MSC_GDPS_DewPointDepression_IsbL-0850_LatLon0.15_PT027H.grib2 2026-04-30 15:57 1.2M
20260430T12Z_MSC_GDPS_DewPointDepression_IsbL-0875_LatLon0.15_PT027H.grib2 2026-04-30 15:57 1.1M
20260430T12Z_MSC_GDPS_DewPointDepression_IsbL-0900_LatLon0.15_PT027H.grib2 2026-04-30 15:57 1.1M
20260430T12Z_MSC_GDPS_DewPointDepression_IsbL-0925_LatLon0.15_PT027H.grib2 2026-04-30 15:57 1.0M
20260430T12Z_MSC_GDPS_DewPointDepression_IsbL-0950_LatLon0.15_PT027H.grib2 2026-04-30 15:57 1.0M
20260430T12Z_MSC_GDPS_DewPointDepression_IsbL-0970_LatLon0.15_PT027H.grib2 2026-04-30 15:57 1.0M
20260430T12Z_MSC_GDPS_DewPointDepression_IsbL-0985_LatLon0.15_PT027H.grib2 2026-04-30 15:57 1.0M
20260430T12Z_MSC_GDPS_DewPointDepression_IsbL-1000_LatLon0.15_PT027H.grib2 2026-04-30 15:57 1.0M
20260430T12Z_MSC_GDPS_DewPointDepression_IsbL-1015_LatLon0.15_PT027H.grib2 2026-04-30 15:57 919K
20260430T12Z_MSC_GDPS_DewPoint_AGL-2m_LatLon0.15_PT027H.grib2 2026-04-30 15:57 610K
20260430T12Z_MSC_GDPS_DownwardLongwaveRadiationFlux-Accum_Sfc_LatLon0.15_PT027H.grib2 2026-04-30 15:57 1.0M
20260430T12Z_MSC_GDPS_DownwardShortwaveRadiationFlux-Accum_NTAtm_LatLon0.15_PT027H.grib2 2026-04-30 15:57 192K
20260430T12Z_MSC_GDPS_DownwardShortwaveRadiationFlux-Accum_Sfc_LatLon0.15_PT027H.grib2 2026-04-30 15:57 1.2M
20260430T12Z_MSC_GDPS_FreezingRain-Accum1h_Sfc_LatLon0.15_PT027H.grib2 2026-04-30 15:57 45K
20260430T12Z_MSC_GDPS_FreezingRain-Accum3h_Sfc_LatLon0.15_PT027H.grib2 2026-04-30 15:57 51K
20260430T12Z_MSC_GDPS_FreezingRain-Accum_Sfc_LatLon0.15_PT027H.grib2 2026-04-30 15:57 206K
20260430T12Z_MSC_GDPS_GeopotentialHeight_IsbL-0001_LatLon0.15_PT027H.grib2 2026-04-30 15:57 377K
20260430T12Z_MSC_GDPS_GeopotentialHeight_IsbL-0005_LatLon0.15_PT027H.grib2 2026-04-30 15:57 490K
20260430T12Z_MSC_GDPS_GeopotentialHeight_IsbL-0010_LatLon0.15_PT027H.grib2 2026-04-30 15:57 480K
20260430T12Z_MSC_GDPS_GeopotentialHeight_IsbL-0020_LatLon0.15_PT027H.grib2 2026-04-30 15:57 419K
20260430T12Z_MSC_GDPS_GeopotentialHeight_IsbL-0030_LatLon0.15_PT027H.grib2 2026-04-30 15:57 575K
20260430T12Z_MSC_GDPS_GeopotentialHeight_IsbL-0050_LatLon0.15_PT027H.grib2 2026-04-30 15:57 579K
20260430T12Z_MSC_GDPS_GeopotentialHeight_IsbL-0100_LatLon0.15_PT027H.grib2 2026-04-30 15:57 613K
20260430T12Z_MSC_GDPS_GeopotentialHeight_IsbL-0150_LatLon0.15_PT027H.grib2 2026-04-30 15:57 631K
20260430T12Z_MSC_GDPS_GeopotentialHeight_IsbL-0175_LatLon0.15_PT027H.grib2 2026-04-30 15:57 635K
20260430T12Z_MSC_GDPS_GeopotentialHeight_IsbL-0200_LatLon0.15_PT027H.grib2 2026-04-30 15:57 640K
20260430T12Z_MSC_GDPS_GeopotentialHeight_IsbL-0225_LatLon0.15_PT027H.grib2 2026-04-30 15:57 644K
20260430T12Z_MSC_GDPS_GeopotentialHeight_IsbL-0250_LatLon0.15_PT027H.grib2 2026-04-30 15:57 647K
20260430T12Z_MSC_GDPS_GeopotentialHeight_IsbL-0275_LatLon0.15_PT027H.grib2 2026-04-30 15:57 645K
20260430T12Z_MSC_GDPS_GeopotentialHeight_IsbL-0300_LatLon0.15_PT027H.grib2 2026-04-30 15:57 643K
20260430T12Z_MSC_GDPS_GeopotentialHeight_IsbL-0350_LatLon0.15_PT027H.grib2 2026-04-30 15:57 632K
20260430T12Z_MSC_GDPS_GeopotentialHeight_IsbL-0400_LatLon0.15_PT027H.grib2 2026-04-30 15:57 624K
20260430T12Z_MSC_GDPS_GeopotentialHeight_IsbL-0450_LatLon0.15_PT027H.grib2 2026-04-30 15:57 615K
20260430T12Z_MSC_GDPS_GeopotentialHeight_IsbL-0500_LatLon0.15_PT027H.grib2 2026-04-30 15:57 537K
20260430T12Z_MSC_GDPS_GeopotentialHeight_IsbL-0550_LatLon0.15_PT027H.grib2 2026-04-30 15:57 532K
20260430T12Z_MSC_GDPS_GeopotentialHeight_IsbL-0600_LatLon0.15_PT027H.grib2 2026-04-30 15:57 527K
20260430T12Z_MSC_GDPS_GeopotentialHeight_IsbL-0650_LatLon0.15_PT027H.grib2 2026-04-30 15:57 695K
20260430T12Z_MSC_GDPS_GeopotentialHeight_IsbL-0700_LatLon0.15_PT027H.grib2 2026-04-30 15:57 690K
20260430T12Z_MSC_GDPS_GeopotentialHeight_IsbL-0750_LatLon0.15_PT027H.grib2 2026-04-30 15:57 694K
20260430T12Z_MSC_GDPS_GeopotentialHeight_IsbL-0800_LatLon0.15_PT027H.grib2 2026-04-30 15:57 702K
20260430T12Z_MSC_GDPS_GeopotentialHeight_IsbL-0850_LatLon0.15_PT027H.grib2 2026-04-30 15:57 716K
20260430T12Z_MSC_GDPS_GeopotentialHeight_IsbL-0875_LatLon0.15_PT027H.grib2 2026-04-30 15:57 720K
20260430T12Z_MSC_GDPS_GeopotentialHeight_IsbL-0900_LatLon0.15_PT027H.grib2 2026-04-30 15:57 723K
20260430T12Z_MSC_GDPS_GeopotentialHeight_IsbL-0925_LatLon0.15_PT027H.grib2 2026-04-30 15:57 730K
20260430T12Z_MSC_GDPS_GeopotentialHeight_IsbL-0950_LatLon0.15_PT027H.grib2 2026-04-30 15:57 738K
20260430T12Z_MSC_GDPS_GeopotentialHeight_IsbL-0970_LatLon0.15_PT027H.grib2 2026-04-30 15:57 752K
20260430T12Z_MSC_GDPS_GeopotentialHeight_IsbL-0985_LatLon0.15_PT027H.grib2 2026-04-30 15:57 768K
20260430T12Z_MSC_GDPS_GeopotentialHeight_IsbL-1000_LatLon0.15_PT027H.grib2 2026-04-30 15:57 790K
20260430T12Z_MSC_GDPS_GeopotentialHeight_IsbL-1015_LatLon0.15_PT027H.grib2 2026-04-30 15:57 620K
20260430T12Z_MSC_GDPS_Humidex_Sfc_LatLon0.15_PT027H.grib2 2026-04-30 15:57 5.3M
20260430T12Z_MSC_GDPS_IcePellets-Accum1h_Sfc_LatLon0.15_PT027H.grib2 2026-04-30 15:57 12K
20260430T12Z_MSC_GDPS_IcePellets-Accum3h_Sfc_LatLon0.15_PT027H.grib2 2026-04-30 15:57 17K
20260430T12Z_MSC_GDPS_IcePellets-Accum_Sfc_LatLon0.15_PT027H.grib2 2026-04-30 15:57 44K
20260430T12Z_MSC_GDPS_KIndex_Sfc_LatLon0.15_PT027H.grib2 2026-04-30 15:57 6.5M
20260430T12Z_MSC_GDPS_LatentHeatNetFlux_Sfc_LatLon0.15_PT027H.grib2 2026-04-30 15:57 544K
20260430T12Z_MSC_GDPS_LiftedIndex-MU-VT_IsbL-0500_LatLon0.15_PT027H.grib2 2026-04-30 15:57 5.4M
20260430T12Z_MSC_GDPS_NetLongwaveRadiationFlux-Accum_Sfc_LatLon0.15_PT027H.grib2 2026-04-30 15:57 1.3M
20260430T12Z_MSC_GDPS_NetShortwaveRadiationFlux-Accum_Sfc_LatLon0.15_PT027H.grib2 2026-04-30 15:57 1.2M
20260430T12Z_MSC_GDPS_O3MixingRatio_Sfc_LatLon0.15_PT027H.grib2 2026-04-30 16:43 2.4M
20260430T12Z_MSC_GDPS_O3_EAtm_LatLon0.15_PT027H.grib2 2026-04-30 16:43 2.5M
20260430T12Z_MSC_GDPS_PlanetaryBoundaryLayerHeight_Sfc_LatLon0.15_PT027H.grib2 2026-04-30 15:57 2.5M
20260430T12Z_MSC_GDPS_Precip-Accum1h_Sfc_LatLon0.15_PT027H.grib2 2026-04-30 15:57 3.2M
20260430T12Z_MSC_GDPS_Precip-Accum3h_Sfc_LatLon0.15_PT027H.grib2 2026-04-30 15:57 3.5M
20260430T12Z_MSC_GDPS_Precip-Accum_Sfc_LatLon0.15_PT027H.grib2 2026-04-30 15:57 4.4M
20260430T12Z_MSC_GDPS_PrecipRate_Sfc_LatLon0.15_PT027H.grib2 2026-04-30 15:57 3.0M
20260430T12Z_MSC_GDPS_PrecipType-Instant_Sfc_LatLon0.15_PT027H.grib2 2026-04-30 15:57 1.6M
20260430T12Z_MSC_GDPS_Pressure_MSL_LatLon0.15_PT027H.grib2 2026-04-30 15:57 830K
20260430T12Z_MSC_GDPS_Pressure_PVU-1.5_LatLon0.15_PT027H.grib2 2026-04-30 15:57 5.8M
20260430T12Z_MSC_GDPS_Pressure_PVU-1_LatLon0.15_PT027H.grib2 2026-04-30 15:57 6.0M
20260430T12Z_MSC_GDPS_Pressure_PVU-2_LatLon0.15_PT027H.grib2 2026-04-30 15:57 5.6M
20260430T12Z_MSC_GDPS_Pressure_Sfc_LatLon0.15_PT027H.grib2 2026-04-30 15:57 1.1M
20260430T12Z_MSC_GDPS_RadiativeTemp_Sfc_LatLon0.15_PT027H.grib2 2026-04-30 15:57 494K
20260430T12Z_MSC_GDPS_Rain-Accum1h_Sfc_LatLon0.15_PT027H.grib2 2026-04-30 15:57 1.7M
20260430T12Z_MSC_GDPS_Rain-Accum3h_Sfc_LatLon0.15_PT027H.grib2 2026-04-30 15:57 1.7M
20260430T12Z_MSC_GDPS_Rain-Accum_Sfc_LatLon0.15_PT027H.grib2 2026-04-30 15:57 3.3M
20260430T12Z_MSC_GDPS_RelativeHumidity_AGL-2m_LatLon0.15_PT027H.grib2 2026-04-30 15:57 1.1M
20260430T12Z_MSC_GDPS_RelativeHumidity_IsbL-0010_LatLon0.15_PT027H.grib2 2026-04-30 15:57 200K
20260430T12Z_MSC_GDPS_RelativeHumidity_IsbL-0020_LatLon0.15_PT027H.grib2 2026-04-30 15:57 172K
20260430T12Z_MSC_GDPS_RelativeHumidity_IsbL-0030_LatLon0.15_PT027H.grib2 2026-04-30 15:57 271K
20260430T12Z_MSC_GDPS_RelativeHumidity_IsbL-0050_LatLon0.15_PT027H.grib2 2026-04-30 15:57 420K
20260430T12Z_MSC_GDPS_RelativeHumidity_IsbL-0100_LatLon0.15_PT027H.grib2 2026-04-30 15:57 518K
20260430T12Z_MSC_GDPS_RelativeHumidity_IsbL-0150_LatLon0.15_PT027H.grib2 2026-04-30 15:57 663K
20260430T12Z_MSC_GDPS_RelativeHumidity_IsbL-0175_LatLon0.15_PT027H.grib2 2026-04-30 15:57 773K
20260430T12Z_MSC_GDPS_RelativeHumidity_IsbL-0200_LatLon0.15_PT027H.grib2 2026-04-30 15:57 700K
20260430T12Z_MSC_GDPS_RelativeHumidity_IsbL-0225_LatLon0.15_PT027H.grib2 2026-04-30 15:57 798K
20260430T12Z_MSC_GDPS_RelativeHumidity_IsbL-0250_LatLon0.15_PT027H.grib2 2026-04-30 15:57 879K
20260430T12Z_MSC_GDPS_RelativeHumidity_IsbL-0275_LatLon0.15_PT027H.grib2 2026-04-30 15:57 898K
20260430T12Z_MSC_GDPS_RelativeHumidity_IsbL-0300_LatLon0.15_PT027H.grib2 2026-04-30 15:57 936K
20260430T12Z_MSC_GDPS_RelativeHumidity_IsbL-0350_LatLon0.15_PT027H.grib2 2026-04-30 15:57 950K
20260430T12Z_MSC_GDPS_RelativeHumidity_IsbL-0400_LatLon0.15_PT027H.grib2 2026-04-30 15:57 970K
20260430T12Z_MSC_GDPS_RelativeHumidity_IsbL-0450_LatLon0.15_PT027H.grib2 2026-04-30 15:57 1.0M
20260430T12Z_MSC_GDPS_RelativeHumidity_IsbL-0500_LatLon0.15_PT027H.grib2 2026-04-30 15:57 1.0M
20260430T12Z_MSC_GDPS_RelativeHumidity_IsbL-0550_LatLon0.15_PT027H.grib2 2026-04-30 15:57 1.1M
20260430T12Z_MSC_GDPS_RelativeHumidity_IsbL-0600_LatLon0.15_PT027H.grib2 2026-04-30 15:57 1.1M
20260430T12Z_MSC_GDPS_RelativeHumidity_IsbL-0650_LatLon0.15_PT027H.grib2 2026-04-30 15:57 1.1M
20260430T12Z_MSC_GDPS_RelativeHumidity_IsbL-0700_LatLon0.15_PT027H.grib2 2026-04-30 15:57 1.2M
20260430T12Z_MSC_GDPS_RelativeHumidity_IsbL-0750_LatLon0.15_PT027H.grib2 2026-04-30 15:57 1.2M
20260430T12Z_MSC_GDPS_RelativeHumidity_IsbL-0800_LatLon0.15_PT027H.grib2 2026-04-30 15:57 1.3M
20260430T12Z_MSC_GDPS_RelativeHumidity_IsbL-0850_LatLon0.15_PT027H.grib2 2026-04-30 15:57 1.3M
20260430T12Z_MSC_GDPS_RelativeHumidity_IsbL-0875_LatLon0.15_PT027H.grib2 2026-04-30 15:57 1.3M
20260430T12Z_MSC_GDPS_RelativeHumidity_IsbL-0900_LatLon0.15_PT027H.grib2 2026-04-30 15:57 1.3M
20260430T12Z_MSC_GDPS_RelativeHumidity_IsbL-0925_LatLon0.15_PT027H.grib2 2026-04-30 15:57 1.2M
20260430T12Z_MSC_GDPS_RelativeHumidity_IsbL-0950_LatLon0.15_PT027H.grib2 2026-04-30 15:57 1.2M
20260430T12Z_MSC_GDPS_RelativeHumidity_IsbL-0970_LatLon0.15_PT027H.grib2 2026-04-30 15:57 1.2M
20260430T12Z_MSC_GDPS_RelativeHumidity_IsbL-0985_LatLon0.15_PT027H.grib2 2026-04-30 15:57 1.2M
20260430T12Z_MSC_GDPS_RelativeHumidity_IsbL-1000_LatLon0.15_PT027H.grib2 2026-04-30 15:57 1.1M
20260430T12Z_MSC_GDPS_RelativeHumidity_IsbL-1015_LatLon0.15_PT027H.grib2 2026-04-30 15:57 1.1M
20260430T12Z_MSC_GDPS_RelativeVorticity_IsbL-0200_LatLon0.15_PT027H.grib2 2026-04-30 15:57 1.5M
20260430T12Z_MSC_GDPS_RelativeVorticity_IsbL-0250_LatLon0.15_PT027H.grib2 2026-04-30 15:57 1.3M
20260430T12Z_MSC_GDPS_RelativeVorticity_IsbL-0500_LatLon0.15_PT027H.grib2 2026-04-30 15:57 1.4M
20260430T12Z_MSC_GDPS_RelativeVorticity_IsbL-0700_LatLon0.15_PT027H.grib2 2026-04-30 15:57 1.6M
20260430T12Z_MSC_GDPS_RelativeVorticity_IsbL-0850_LatLon0.15_PT027H.grib2 2026-04-30 15:57 1.6M
20260430T12Z_MSC_GDPS_Runoff-Accum_Sfc_LatLon0.15_PT027H.grib2 2026-04-30 15:57 128K
20260430T12Z_MSC_GDPS_SensibleHeatNetFlux_Sfc_LatLon0.15_PT027H.grib2 2026-04-30 15:57 645K
20260430T12Z_MSC_GDPS_ShowalterIndex_IsbL-0500_LatLon0.15_PT027H.grib2 2026-04-30 15:57 6.2M
20260430T12Z_MSC_GDPS_Snow-Accum1h_Sfc_LatLon0.15_PT027H.grib2 2026-04-30 15:57 1.2M
20260430T12Z_MSC_GDPS_Snow-Accum3h_Sfc_LatLon0.15_PT027H.grib2 2026-04-30 15:57 1.1M
20260430T12Z_MSC_GDPS_Snow-Accum_Sfc_LatLon0.15_PT027H.grib2 2026-04-30 15:57 1.8M
20260430T12Z_MSC_GDPS_SnowDensity_Sfc_LatLon0.15_PT027H.grib2 2026-04-30 15:57 258K
20260430T12Z_MSC_GDPS_SnowDepth_Sfc_LatLon0.15_PT027H.grib2 2026-04-30 15:57 1.7M
20260430T12Z_MSC_GDPS_SoilTemp_DBS-0to10cm_LatLon0.15_PT027H.grib2 2026-04-30 15:57 501K
20260430T12Z_MSC_GDPS_SoilTemp_Sfc_LatLon0.15_PT027H.grib2 2026-04-30 15:57 573K
20260430T12Z_MSC_GDPS_SoilVolumetricIceContent_Sfc_LatLon0.15_PT027H.grib2 2026-04-30 15:57 204K
20260430T12Z_MSC_GDPS_SoilVolumetricWaterContent_DBS-0to10cm_LatLon0.15_PT027H.grib2 2026-04-30 15:57 585K
20260430T12Z_MSC_GDPS_SoilVolumetricWaterContent_DBS-0to1cm_LatLon0.15_PT027H.grib2 2026-04-30 15:57 648K
20260430T12Z_MSC_GDPS_SpecificHumidity_AGL-120m_LatLon0.15_PT027H.grib2 2026-04-30 15:57 1.1M
20260430T12Z_MSC_GDPS_SpecificHumidity_AGL-2m_LatLon0.15_PT027H.grib2 2026-04-30 15:57 1.2M
20260430T12Z_MSC_GDPS_SpecificHumidity_AGL-40m_LatLon0.15_PT027H.grib2 2026-04-30 15:57 1.1M
20260430T12Z_MSC_GDPS_SpecificHumidity_AGL-80m_LatLon0.15_PT027H.grib2 2026-04-30 15:57 1.1M
20260430T12Z_MSC_GDPS_SpecificHumidity_IsbL-0001_LatLon0.15_PT027H.grib2 2026-04-30 15:57 1.3M
20260430T12Z_MSC_GDPS_SpecificHumidity_IsbL-0005_LatLon0.15_PT027H.grib2 2026-04-30 15:57 1.3M
20260430T12Z_MSC_GDPS_SpecificHumidity_IsbL-0010_LatLon0.15_PT027H.grib2 2026-04-30 15:57 1.4M
20260430T12Z_MSC_GDPS_SpecificHumidity_IsbL-0020_LatLon0.15_PT027H.grib2 2026-04-30 15:57 1.4M
20260430T12Z_MSC_GDPS_SpecificHumidity_IsbL-0030_LatLon0.15_PT027H.grib2 2026-04-30 15:57 1.4M
20260430T12Z_MSC_GDPS_SpecificHumidity_IsbL-0050_LatLon0.15_PT027H.grib2 2026-04-30 15:57 1.4M
20260430T12Z_MSC_GDPS_SpecificHumidity_IsbL-0100_LatLon0.15_PT027H.grib2 2026-04-30 15:57 1.4M
20260430T12Z_MSC_GDPS_SpecificHumidity_IsbL-0150_LatLon0.15_PT027H.grib2 2026-04-30 15:57 1.3M
20260430T12Z_MSC_GDPS_SpecificHumidity_IsbL-0175_LatLon0.15_PT027H.grib2 2026-04-30 15:57 1.2M
20260430T12Z_MSC_GDPS_SpecificHumidity_IsbL-0200_LatLon0.15_PT027H.grib2 2026-04-30 15:57 1.3M
20260430T12Z_MSC_GDPS_SpecificHumidity_IsbL-0225_LatLon0.15_PT027H.grib2 2026-04-30 15:57 1.3M
20260430T12Z_MSC_GDPS_SpecificHumidity_IsbL-0250_LatLon0.15_PT027H.grib2 2026-04-30 15:57 1.4M
20260430T12Z_MSC_GDPS_SpecificHumidity_IsbL-0275_LatLon0.15_PT027H.grib2 2026-04-30 15:57 1.3M
20260430T12Z_MSC_GDPS_SpecificHumidity_IsbL-0300_LatLon0.15_PT027H.grib2 2026-04-30 15:57 1.2M
20260430T12Z_MSC_GDPS_SpecificHumidity_IsbL-0350_LatLon0.15_PT027H.grib2 2026-04-30 15:57 1.2M
20260430T12Z_MSC_GDPS_SpecificHumidity_IsbL-0400_LatLon0.15_PT027H.grib2 2026-04-30 15:57 1.4M
20260430T12Z_MSC_GDPS_SpecificHumidity_IsbL-0450_LatLon0.15_PT027H.grib2 2026-04-30 15:57 1.6M
20260430T12Z_MSC_GDPS_SpecificHumidity_IsbL-0500_LatLon0.15_PT027H.grib2 2026-04-30 15:57 1.4M
20260430T12Z_MSC_GDPS_SpecificHumidity_IsbL-0550_LatLon0.15_PT027H.grib2 2026-04-30 15:57 1.6M
20260430T12Z_MSC_GDPS_SpecificHumidity_IsbL-0600_LatLon0.15_PT027H.grib2 2026-04-30 15:57 1.7M
20260430T12Z_MSC_GDPS_SpecificHumidity_IsbL-0650_LatLon0.15_PT027H.grib2 2026-04-30 15:57 1.5M
20260430T12Z_MSC_GDPS_SpecificHumidity_IsbL-0700_LatLon0.15_PT027H.grib2 2026-04-30 15:57 1.6M
20260430T12Z_MSC_GDPS_SpecificHumidity_IsbL-0750_LatLon0.15_PT027H.grib2 2026-04-30 15:57 1.7M
20260430T12Z_MSC_GDPS_SpecificHumidity_IsbL-0800_LatLon0.15_PT027H.grib2 2026-04-30 15:57 1.9M
20260430T12Z_MSC_GDPS_SpecificHumidity_IsbL-0850_LatLon0.15_PT027H.grib2 2026-04-30 15:57 1.9M
20260430T12Z_MSC_GDPS_SpecificHumidity_IsbL-0875_LatLon0.15_PT027H.grib2 2026-04-30 15:57 1.9M
20260430T12Z_MSC_GDPS_SpecificHumidity_IsbL-0900_LatLon0.15_PT027H.grib2 2026-04-30 15:57 1.6M
20260430T12Z_MSC_GDPS_SpecificHumidity_IsbL-0925_LatLon0.15_PT027H.grib2 2026-04-30 15:57 1.6M
20260430T12Z_MSC_GDPS_SpecificHumidity_IsbL-0950_LatLon0.15_PT027H.grib2 2026-04-30 15:57 1.6M
20260430T12Z_MSC_GDPS_SpecificHumidity_IsbL-0970_LatLon0.15_PT027H.grib2 2026-04-30 15:57 1.5M
20260430T12Z_MSC_GDPS_SpecificHumidity_IsbL-0985_LatLon0.15_PT027H.grib2 2026-04-30 15:57 1.5M
20260430T12Z_MSC_GDPS_SpecificHumidity_IsbL-1000_LatLon0.15_PT027H.grib2 2026-04-30 15:57 1.5M
20260430T12Z_MSC_GDPS_SpecificHumidity_IsbL-1015_LatLon0.15_PT027H.grib2 2026-04-30 15:57 1.5M
20260430T12Z_MSC_GDPS_SpecificHumidity_Sfc_LatLon0.15_PT027H.grib2 2026-04-30 15:57 672K
20260430T12Z_MSC_GDPS_Thickness_IsbL-0850to0700_LatLon0.15_PT027H.grib2 2026-04-30 15:57 467K
20260430T12Z_MSC_GDPS_Thickness_IsbL-1000to0500_LatLon0.15_PT027H.grib2 2026-04-30 15:57 368K
20260430T12Z_MSC_GDPS_Thickness_IsbL-1000to0850_LatLon0.15_PT027H.grib2 2026-04-30 15:57 490K
20260430T12Z_MSC_GDPS_TotalCloudCover_Sfc_LatLon0.15_PT027H.grib2 2026-04-30 15:57 825K
20260430T12Z_MSC_GDPS_TotalTotalsIndex_Sfc_LatLon0.15_PT027H.grib2 2026-04-30 15:57 6.2M
20260430T12Z_MSC_GDPS_UVIndex-ClearSky_Sfc_LatLon0.15_PT027H.grib2 2026-04-30 16:43 1.0M
20260430T12Z_MSC_GDPS_UVIndex_Sfc_LatLon0.15_PT027H.grib2 2026-04-30 16:43 1.5M
20260430T12Z_MSC_GDPS_UpwardLongwaveRadiationFlux_NTAtm_LatLon0.15_PT027H.grib2 2026-04-30 15:57 843K
20260430T12Z_MSC_GDPS_VerticalVelocity_IsbL-0200_LatLon0.15_PT027H.grib2 2026-04-30 15:57 1.2M
20260430T12Z_MSC_GDPS_VerticalVelocity_IsbL-0250_LatLon0.15_PT027H.grib2 2026-04-30 15:57 1.0M
20260430T12Z_MSC_GDPS_VerticalVelocity_IsbL-0500_LatLon0.15_PT027H.grib2 2026-04-30 15:57 1.3M
20260430T12Z_MSC_GDPS_VerticalVelocity_IsbL-0600_LatLon0.15_PT027H.grib2 2026-04-30 15:57 1.1M
20260430T12Z_MSC_GDPS_VerticalVelocity_IsbL-0700_LatLon0.15_PT027H.grib2 2026-04-30 15:57 1.2M
20260430T12Z_MSC_GDPS_VerticalVelocity_IsbL-0850_LatLon0.15_PT027H.grib2 2026-04-30 15:57 1.4M
20260430T12Z_MSC_GDPS_WindChill_Sfc_LatLon0.15_PT027H.grib2 2026-04-30 15:57 5.3M
20260430T12Z_MSC_GDPS_WindDir_AGL-10m_LatLon0.15_PT027H.grib2 2026-04-30 15:57 1.3M
20260430T12Z_MSC_GDPS_WindDir_AGL-120m_LatLon0.15_PT027H.grib2 2026-04-30 15:57 1.4M
20260430T12Z_MSC_GDPS_WindDir_AGL-40m_LatLon0.15_PT027H.grib2 2026-04-30 15:57 1.4M
20260430T12Z_MSC_GDPS_WindDir_AGL-80m_LatLon0.15_PT027H.grib2 2026-04-30 15:57 1.4M
20260430T12Z_MSC_GDPS_WindDir_IsbL-0001_LatLon0.15_PT027H.grib2 2026-04-30 15:57 672K
20260430T12Z_MSC_GDPS_WindDir_IsbL-0005_LatLon0.15_PT027H.grib2 2026-04-30 15:57 811K
20260430T12Z_MSC_GDPS_WindDir_IsbL-0010_LatLon0.15_PT027H.grib2 2026-04-30 15:57 853K
20260430T12Z_MSC_GDPS_WindDir_IsbL-0020_LatLon0.15_PT027H.grib2 2026-04-30 15:57 948K
20260430T12Z_MSC_GDPS_WindDir_IsbL-0030_LatLon0.15_PT027H.grib2 2026-04-30 15:57 936K
20260430T12Z_MSC_GDPS_WindDir_IsbL-0050_LatLon0.15_PT027H.grib2 2026-04-30 15:57 940K
20260430T12Z_MSC_GDPS_WindDir_IsbL-0100_LatLon0.15_PT027H.grib2 2026-04-30 15:57 1.0M
20260430T12Z_MSC_GDPS_WindDir_IsbL-0150_LatLon0.15_PT027H.grib2 2026-04-30 15:57 1.0M
20260430T12Z_MSC_GDPS_WindDir_IsbL-0175_LatLon0.15_PT027H.grib2 2026-04-30 15:57 1.1M
20260430T12Z_MSC_GDPS_WindDir_IsbL-0200_LatLon0.15_PT027H.grib2 2026-04-30 15:57 1.1M
20260430T12Z_MSC_GDPS_WindDir_IsbL-0225_LatLon0.15_PT027H.grib2 2026-04-30 15:57 1.1M
20260430T12Z_MSC_GDPS_WindDir_IsbL-0250_LatLon0.15_PT027H.grib2 2026-04-30 15:57 1.1M
20260430T12Z_MSC_GDPS_WindDir_IsbL-0275_LatLon0.15_PT027H.grib2 2026-04-30 15:57 1.2M
20260430T12Z_MSC_GDPS_WindDir_IsbL-0300_LatLon0.15_PT027H.grib2 2026-04-30 15:57 1.2M
20260430T12Z_MSC_GDPS_WindDir_IsbL-0350_LatLon0.15_PT027H.grib2 2026-04-30 15:57 1.2M
20260430T12Z_MSC_GDPS_WindDir_IsbL-0400_LatLon0.15_PT027H.grib2 2026-04-30 15:57 1.3M
20260430T12Z_MSC_GDPS_WindDir_IsbL-0450_LatLon0.15_PT027H.grib2 2026-04-30 15:57 1.3M
20260430T12Z_MSC_GDPS_WindDir_IsbL-0500_LatLon0.15_PT027H.grib2 2026-04-30 15:57 1.3M
20260430T12Z_MSC_GDPS_WindDir_IsbL-0550_LatLon0.15_PT027H.grib2 2026-04-30 15:57 1.4M
20260430T12Z_MSC_GDPS_WindDir_IsbL-0600_LatLon0.15_PT027H.grib2 2026-04-30 15:57 1.5M
20260430T12Z_MSC_GDPS_WindDir_IsbL-0650_LatLon0.15_PT027H.grib2 2026-04-30 15:57 1.5M
20260430T12Z_MSC_GDPS_WindDir_IsbL-0700_LatLon0.15_PT027H.grib2 2026-04-30 15:57 1.6M
20260430T12Z_MSC_GDPS_WindDir_IsbL-0750_LatLon0.15_PT027H.grib2 2026-04-30 15:57 1.7M
20260430T12Z_MSC_GDPS_WindDir_IsbL-0800_LatLon0.15_PT027H.grib2 2026-04-30 15:57 1.8M
20260430T12Z_MSC_GDPS_WindDir_IsbL-0850_LatLon0.15_PT027H.grib2 2026-04-30 15:57 1.9M
20260430T12Z_MSC_GDPS_WindDir_IsbL-0875_LatLon0.15_PT027H.grib2 2026-04-30 15:57 2.0M
20260430T12Z_MSC_GDPS_WindDir_IsbL-0900_LatLon0.15_PT027H.grib2 2026-04-30 15:57 2.0M
20260430T12Z_MSC_GDPS_WindDir_IsbL-0925_LatLon0.15_PT027H.grib2 2026-04-30 15:57 2.0M
20260430T12Z_MSC_GDPS_WindDir_IsbL-0950_LatLon0.15_PT027H.grib2 2026-04-30 15:57 2.0M
20260430T12Z_MSC_GDPS_WindDir_IsbL-0970_LatLon0.15_PT027H.grib2 2026-04-30 15:57 2.0M
20260430T12Z_MSC_GDPS_WindDir_IsbL-0985_LatLon0.15_PT027H.grib2 2026-04-30 15:57 2.0M
20260430T12Z_MSC_GDPS_WindDir_IsbL-1000_LatLon0.15_PT027H.grib2 2026-04-30 15:57 2.1M
20260430T12Z_MSC_GDPS_WindDir_IsbL-1015_LatLon0.15_PT027H.grib2 2026-04-30 15:57 2.0M
20260430T12Z_MSC_GDPS_WindGust-Max_AGL-10m_LatLon0.15_PT027H.grib2 2026-04-30 15:57 2.2M
20260430T12Z_MSC_GDPS_WindGust-Min_AGL-10m_LatLon0.15_PT027H.grib2 2026-04-30 15:57 2.2M
20260430T12Z_MSC_GDPS_WindGust_AGL-10m_LatLon0.15_PT027H.grib2 2026-04-30 15:57 2.1M
20260430T12Z_MSC_GDPS_WindSpeed_AGL-10m_LatLon0.15_PT027H.grib2 2026-04-30 15:57 1.1M
20260430T12Z_MSC_GDPS_WindSpeed_AGL-120m_LatLon0.15_PT027H.grib2 2026-04-30 15:57 1.2M
20260430T12Z_MSC_GDPS_WindSpeed_AGL-40m_LatLon0.15_PT027H.grib2 2026-04-30 15:57 1.2M
20260430T12Z_MSC_GDPS_WindSpeed_AGL-80m_LatLon0.15_PT027H.grib2 2026-04-30 15:57 1.2M
20260430T12Z_MSC_GDPS_WindSpeed_IsbL-0001_LatLon0.15_PT027H.grib2 2026-04-30 15:57 648K
20260430T12Z_MSC_GDPS_WindSpeed_IsbL-0005_LatLon0.15_PT027H.grib2 2026-04-30 15:57 617K
20260430T12Z_MSC_GDPS_WindSpeed_IsbL-0010_LatLon0.15_PT027H.grib2 2026-04-30 15:57 631K
20260430T12Z_MSC_GDPS_WindSpeed_IsbL-0020_LatLon0.15_PT027H.grib2 2026-04-30 15:57 865K
20260430T12Z_MSC_GDPS_WindSpeed_IsbL-0030_LatLon0.15_PT027H.grib2 2026-04-30 15:57 871K
20260430T12Z_MSC_GDPS_WindSpeed_IsbL-0050_LatLon0.15_PT027H.grib2 2026-04-30 15:57 910K
20260430T12Z_MSC_GDPS_WindSpeed_IsbL-0100_LatLon0.15_PT027H.grib2 2026-04-30 15:57 1.1M
20260430T12Z_MSC_GDPS_WindSpeed_IsbL-0150_LatLon0.15_PT027H.grib2 2026-04-30 15:57 1.0M
20260430T12Z_MSC_GDPS_WindSpeed_IsbL-0175_LatLon0.15_PT027H.grib2 2026-04-30 15:57 1.0M
20260430T12Z_MSC_GDPS_WindSpeed_IsbL-0200_LatLon0.15_PT027H.grib2 2026-04-30 15:57 1.1M
20260430T12Z_MSC_GDPS_WindSpeed_IsbL-0225_LatLon0.15_PT027H.grib2 2026-04-30 15:57 1.1M
20260430T12Z_MSC_GDPS_WindSpeed_IsbL-0250_LatLon0.15_PT027H.grib2 2026-04-30 15:57 1.1M
20260430T12Z_MSC_GDPS_WindSpeed_IsbL-0275_LatLon0.15_PT027H.grib2 2026-04-30 15:57 1.1M
20260430T12Z_MSC_GDPS_WindSpeed_IsbL-0300_LatLon0.15_PT027H.grib2 2026-04-30 15:57 1.1M
20260430T12Z_MSC_GDPS_WindSpeed_IsbL-0350_LatLon0.15_PT027H.grib2 2026-04-30 15:57 1.1M
20260430T12Z_MSC_GDPS_WindSpeed_IsbL-0400_LatLon0.15_PT027H.grib2 2026-04-30 15:57 1.1M
20260430T12Z_MSC_GDPS_WindSpeed_IsbL-0450_LatLon0.15_PT027H.grib2 2026-04-30 15:57 1.1M
20260430T12Z_MSC_GDPS_WindSpeed_IsbL-0500_LatLon0.15_PT027H.grib2 2026-04-30 15:57 1.1M
20260430T12Z_MSC_GDPS_WindSpeed_IsbL-0550_LatLon0.15_PT027H.grib2 2026-04-30 15:57 1.1M
20260430T12Z_MSC_GDPS_WindSpeed_IsbL-0600_LatLon0.15_PT027H.grib2 2026-04-30 15:57 1.4M
20260430T12Z_MSC_GDPS_WindSpeed_IsbL-0650_LatLon0.15_PT027H.grib2 2026-04-30 15:57 1.5M
20260430T12Z_MSC_GDPS_WindSpeed_IsbL-0700_LatLon0.15_PT027H.grib2 2026-04-30 15:57 1.5M
20260430T12Z_MSC_GDPS_WindSpeed_IsbL-0750_LatLon0.15_PT027H.grib2 2026-04-30 15:57 1.6M
20260430T12Z_MSC_GDPS_WindSpeed_IsbL-0800_LatLon0.15_PT027H.grib2 2026-04-30 15:57 1.7M
20260430T12Z_MSC_GDPS_WindSpeed_IsbL-0850_LatLon0.15_PT027H.grib2 2026-04-30 15:57 1.8M
20260430T12Z_MSC_GDPS_WindSpeed_IsbL-0875_LatLon0.15_PT027H.grib2 2026-04-30 15:57 1.8M
20260430T12Z_MSC_GDPS_WindSpeed_IsbL-0900_LatLon0.15_PT027H.grib2 2026-04-30 15:57 1.8M
20260430T12Z_MSC_GDPS_WindSpeed_IsbL-0925_LatLon0.15_PT027H.grib2 2026-04-30 15:57 1.8M
20260430T12Z_MSC_GDPS_WindSpeed_IsbL-0950_LatLon0.15_PT027H.grib2 2026-04-30 15:57 1.9M
20260430T12Z_MSC_GDPS_WindSpeed_IsbL-0970_LatLon0.15_PT027H.grib2 2026-04-30 15:57 1.9M
20260430T12Z_MSC_GDPS_WindSpeed_IsbL-0985_LatLon0.15_PT027H.grib2 2026-04-30 15:57 1.9M
20260430T12Z_MSC_GDPS_WindSpeed_IsbL-1000_LatLon0.15_PT027H.grib2 2026-04-30 15:57 1.9M
20260430T12Z_MSC_GDPS_WindSpeed_IsbL-1015_LatLon0.15_PT027H.grib2 2026-04-30 15:57 1.8M
20260430T12Z_MSC_GDPS_WindU_AGL-10m_LatLon0.15_PT027H.grib2 2026-04-30 15:57 1.3M
20260430T12Z_MSC_GDPS_WindU_AGL-120m_LatLon0.15_PT027H.grib2 2026-04-30 15:57 1.0M
20260430T12Z_MSC_GDPS_WindU_AGL-40m_LatLon0.15_PT027H.grib2 2026-04-30 15:57 1.0M
20260430T12Z_MSC_GDPS_WindU_AGL-80m_LatLon0.15_PT027H.grib2 2026-04-30 15:57 1.0M
20260430T12Z_MSC_GDPS_WindU_IsbL-0001_LatLon0.15_PT027H.grib2 2026-04-30 15:57 501K
20260430T12Z_MSC_GDPS_WindU_IsbL-0005_LatLon0.15_PT027H.grib2 2026-04-30 15:57 696K
20260430T12Z_MSC_GDPS_WindU_IsbL-0010_LatLon0.15_PT027H.grib2 2026-04-30 15:57 707K
20260430T12Z_MSC_GDPS_WindU_IsbL-0020_LatLon0.15_PT027H.grib2 2026-04-30 15:57 737K
20260430T12Z_MSC_GDPS_WindU_IsbL-0030_LatLon0.15_PT027H.grib2 2026-04-30 15:57 744K
20260430T12Z_MSC_GDPS_WindU_IsbL-0050_LatLon0.15_PT027H.grib2 2026-04-30 15:57 774K
20260430T12Z_MSC_GDPS_WindU_IsbL-0100_LatLon0.15_PT027H.grib2 2026-04-30 15:57 926K
20260430T12Z_MSC_GDPS_WindU_IsbL-0150_LatLon0.15_PT027H.grib2 2026-04-30 15:57 1.0M
20260430T12Z_MSC_GDPS_WindU_IsbL-0175_LatLon0.15_PT027H.grib2 2026-04-30 15:57 1.0M
20260430T12Z_MSC_GDPS_WindU_IsbL-0200_LatLon0.15_PT027H.grib2 2026-04-30 15:57 849K
20260430T12Z_MSC_GDPS_WindU_IsbL-0225_LatLon0.15_PT027H.grib2 2026-04-30 15:57 860K
20260430T12Z_MSC_GDPS_WindU_IsbL-0250_LatLon0.15_PT027H.grib2 2026-04-30 15:57 860K
20260430T12Z_MSC_GDPS_WindU_IsbL-0275_LatLon0.15_PT027H.grib2 2026-04-30 15:57 886K
20260430T12Z_MSC_GDPS_WindU_IsbL-0300_LatLon0.15_PT027H.grib2 2026-04-30 15:57 876K
20260430T12Z_MSC_GDPS_WindU_IsbL-0350_LatLon0.15_PT027H.grib2 2026-04-30 15:57 1.1M
20260430T12Z_MSC_GDPS_WindU_IsbL-0400_LatLon0.15_PT027H.grib2 2026-04-30 15:57 1.1M
20260430T12Z_MSC_GDPS_WindU_IsbL-0450_LatLon0.15_PT027H.grib2 2026-04-30 15:57 1.1M
20260430T12Z_MSC_GDPS_WindU_IsbL-0500_LatLon0.15_PT027H.grib2 2026-04-30 15:57 1.1M
20260430T12Z_MSC_GDPS_WindU_IsbL-0550_LatLon0.15_PT027H.grib2 2026-04-30 15:57 1.1M
20260430T12Z_MSC_GDPS_WindU_IsbL-0600_LatLon0.15_PT027H.grib2 2026-04-30 15:57 1.2M
20260430T12Z_MSC_GDPS_WindU_IsbL-0650_LatLon0.15_PT027H.grib2 2026-04-30 15:57 1.2M
20260430T12Z_MSC_GDPS_WindU_IsbL-0700_LatLon0.15_PT027H.grib2 2026-04-30 15:57 1.2M
20260430T12Z_MSC_GDPS_WindU_IsbL-0750_LatLon0.15_PT027H.grib2 2026-04-30 15:57 1.3M
20260430T12Z_MSC_GDPS_WindU_IsbL-0800_LatLon0.15_PT027H.grib2 2026-04-30 15:57 1.4M
20260430T12Z_MSC_GDPS_WindU_IsbL-0850_LatLon0.15_PT027H.grib2 2026-04-30 15:57 1.4M
20260430T12Z_MSC_GDPS_WindU_IsbL-0875_LatLon0.15_PT027H.grib2 2026-04-30 15:57 1.5M
20260430T12Z_MSC_GDPS_WindU_IsbL-0900_LatLon0.15_PT027H.grib2 2026-04-30 15:57 1.5M
20260430T12Z_MSC_GDPS_WindU_IsbL-0925_LatLon0.15_PT027H.grib2 2026-04-30 15:57 1.5M
20260430T12Z_MSC_GDPS_WindU_IsbL-0950_LatLon0.15_PT027H.grib2 2026-04-30 15:57 1.4M
20260430T12Z_MSC_GDPS_WindU_IsbL-0970_LatLon0.15_PT027H.grib2 2026-04-30 15:57 1.4M
20260430T12Z_MSC_GDPS_WindU_IsbL-0985_LatLon0.15_PT027H.grib2 2026-04-30 15:57 1.4M
20260430T12Z_MSC_GDPS_WindU_IsbL-1000_LatLon0.15_PT027H.grib2 2026-04-30 15:57 1.4M
20260430T12Z_MSC_GDPS_WindU_IsbL-1015_LatLon0.15_PT027H.grib2 2026-04-30 15:57 1.4M
20260430T12Z_MSC_GDPS_WindV_AGL-10m_LatLon0.15_PT027H.grib2 2026-04-30 15:57 1.3M
20260430T12Z_MSC_GDPS_WindV_AGL-120m_LatLon0.15_PT027H.grib2 2026-04-30 15:57 1.0M
20260430T12Z_MSC_GDPS_WindV_AGL-40m_LatLon0.15_PT027H.grib2 2026-04-30 15:57 972K
20260430T12Z_MSC_GDPS_WindV_AGL-80m_LatLon0.15_PT027H.grib2 2026-04-30 15:57 1.0M
20260430T12Z_MSC_GDPS_WindV_IsbL-0001_LatLon0.15_PT027H.grib2 2026-04-30 15:57 714K
20260430T12Z_MSC_GDPS_WindV_IsbL-0005_LatLon0.15_PT027H.grib2 2026-04-30 15:57 768K
20260430T12Z_MSC_GDPS_WindV_IsbL-0010_LatLon0.15_PT027H.grib2 2026-04-30 15:57 801K
20260430T12Z_MSC_GDPS_WindV_IsbL-0020_LatLon0.15_PT027H.grib2 2026-04-30 15:57 855K
20260430T12Z_MSC_GDPS_WindV_IsbL-0030_LatLon0.15_PT027H.grib2 2026-04-30 15:57 859K
20260430T12Z_MSC_GDPS_WindV_IsbL-0050_LatLon0.15_PT027H.grib2 2026-04-30 15:57 909K
20260430T12Z_MSC_GDPS_WindV_IsbL-0100_LatLon0.15_PT027H.grib2 2026-04-30 15:57 1.1M
20260430T12Z_MSC_GDPS_WindV_IsbL-0150_LatLon0.15_PT027H.grib2 2026-04-30 15:57 938K
20260430T12Z_MSC_GDPS_WindV_IsbL-0175_LatLon0.15_PT027H.grib2 2026-04-30 15:57 1.0M
20260430T12Z_MSC_GDPS_WindV_IsbL-0200_LatLon0.15_PT027H.grib2 2026-04-30 15:57 848K
20260430T12Z_MSC_GDPS_WindV_IsbL-0225_LatLon0.15_PT027H.grib2 2026-04-30 15:57 856K
20260430T12Z_MSC_GDPS_WindV_IsbL-0250_LatLon0.15_PT027H.grib2 2026-04-30 15:57 856K
20260430T12Z_MSC_GDPS_WindV_IsbL-0275_LatLon0.15_PT027H.grib2 2026-04-30 15:57 882K
20260430T12Z_MSC_GDPS_WindV_IsbL-0300_LatLon0.15_PT027H.grib2 2026-04-30 15:57 868K
20260430T12Z_MSC_GDPS_WindV_IsbL-0350_LatLon0.15_PT027H.grib2 2026-04-30 15:57 877K
20260430T12Z_MSC_GDPS_WindV_IsbL-0400_LatLon0.15_PT027H.grib2 2026-04-30 15:57 883K
20260430T12Z_MSC_GDPS_WindV_IsbL-0450_LatLon0.15_PT027H.grib2 2026-04-30 15:57 1.1M
20260430T12Z_MSC_GDPS_WindV_IsbL-0500_LatLon0.15_PT027H.grib2 2026-04-30 15:57 1.1M
20260430T12Z_MSC_GDPS_WindV_IsbL-0550_LatLon0.15_PT027H.grib2 2026-04-30 15:57 1.1M
20260430T12Z_MSC_GDPS_WindV_IsbL-0600_LatLon0.15_PT027H.grib2 2026-04-30 15:57 1.1M
20260430T12Z_MSC_GDPS_WindV_IsbL-0650_LatLon0.15_PT027H.grib2 2026-04-30 15:57 1.2M
20260430T12Z_MSC_GDPS_WindV_IsbL-0700_LatLon0.15_PT027H.grib2 2026-04-30 15:57 1.2M
20260430T12Z_MSC_GDPS_WindV_IsbL-0750_LatLon0.15_PT027H.grib2 2026-04-30 15:57 1.3M
20260430T12Z_MSC_GDPS_WindV_IsbL-0800_LatLon0.15_PT027H.grib2 2026-04-30 15:57 1.4M
20260430T12Z_MSC_GDPS_WindV_IsbL-0850_LatLon0.15_PT027H.grib2 2026-04-30 15:57 1.4M
20260430T12Z_MSC_GDPS_WindV_IsbL-0875_LatLon0.15_PT027H.grib2 2026-04-30 15:57 1.5M
20260430T12Z_MSC_GDPS_WindV_IsbL-0900_LatLon0.15_PT027H.grib2 2026-04-30 15:57 1.5M
20260430T12Z_MSC_GDPS_WindV_IsbL-0925_LatLon0.15_PT027H.grib2 2026-04-30 15:57 1.5M
20260430T12Z_MSC_GDPS_WindV_IsbL-0950_LatLon0.15_PT027H.grib2 2026-04-30 15:57 1.4M
20260430T12Z_MSC_GDPS_WindV_IsbL-0970_LatLon0.15_PT027H.grib2 2026-04-30 15:57 1.4M
20260430T12Z_MSC_GDPS_WindV_IsbL-0985_LatLon0.15_PT027H.grib2 2026-04-30 15:57 1.4M
20260430T12Z_MSC_GDPS_WindV_IsbL-1000_LatLon0.15_PT027H.grib2 2026-04-30 15:57 1.4M
20260430T12Z_MSC_GDPS_WindV_IsbL-1015_LatLon0.15_PT027H.grib2 2026-04-30 15:57 1.4M